Time,TemperatureF,DewpointF,PressureIn,WindDirection,WindDirectionDegrees,WindSpeedMPH,WindSpeedGustMPH,Humidity,HourlyPrecipIn,Conditions,Clouds,dailyrainin,SolarRadiationWatts/m^2,SoftwareType,DateUTC
2013-05-26 00:01:00,74.7,72.0,30.01,ESE,118,0.0,2.0,92,0.00,,,0.00,0,weatherlink.com 1.10,2013-05-26 04:01:00,
2013-05-26 00:16:00,74.7,72.0,30.00,ESE,119,0.0,6.0,92,0.00,,,0.00,0,weatherlink.com 1.10,2013-05-26 04:16:00,
2013-05-26 00:31:00,74.8,72.0,30.00,East,89,0.0,5.0,92,0.00,,,0.00,0,weatherlink.com 1.10,2013-05-26 04:31:00,
2013-05-26 00:46:00,74.7,72.0,29.99,SE,131,0.0,5.0,91,0.00,,,0.00,0,weatherlink.com 1.10,2013-05-26 04:46:00,
2013-05-26 01:01:00,74.9,72.0,29.99,SE,129,0.0,8.0,91,0.00,,,0.00,0,weatherlink.com 1.10,2013-05-26 05:01:00,
2013-05-26 01:16:00,75.0,72.0,29.99,ESE,115,0.0,4.0,90,0.00,,,0.00,0,weatherlink.com 1.10,2013-05-26 05:16:00,
2013-05-26 01:31:00,74.7,72.0,29.98,ESE,110,3.0,3.0,91,0.00,,,0.00,0,weatherlink.com 1.10,2013-05-26 05:31:00,
2013-05-26 01:46:00,74.6,72.0,29.98,East,91,1.0,3.0,92,0.00,,,0.00,0,weatherlink.com 1.10,2013-05-26 05:46:00,
2013-05-26 02:01:00,74.5,72.0,29.98,East,88,0.0,1.0,92,0.00,,,0.00,0,weatherlink.com 1.10,2013-05-26 06:01:00,
2013-05-26 02:16:00,74.2,72.0,29.97,East,93,1.0,2.0,93,0.00,,,0.00,0,weatherlink.com 1.10,2013-05-26 06:16:00,
2013-05-26 02:31:00,74.2,72.0,29.97,East,98,1.0,3.0,93,0.00,,,0.00,0,weatherlink.com 1.10,2013-05-26 06:31:00,
2013-05-26 02:46:00,74.3,72.0,29.97,ESE,118,1.0,4.0,92,0.00,,,0.00,0,weatherlink.com 1.10,2013-05-26 06:46:00,
2013-05-26 03:01:00,74.6,72.0,29.97,East,80,0.0,3.0,92,0.00,,,0.00,0,weatherlink.com 1.10,2013-05-26 07:01:00,
2013-05-26 03:16:00,73.9,72.0,29.96,East,80,0.0,0.0,93,0.00,,,0.00,0,weatherlink.com 1.10,2013-05-26 07:16:00,
2013-05-26 03:31:00,73.7,72.0,29.96,East,80,0.0,1.0,94,0.00,,,0.00,0,weatherlink.com 1.10,2013-05-26 07:31:00,
2013-05-26 03:46:00,73.6,72.0,29.96,East,80,0.0,1.0,94,0.00,,,0.00,0,weatherlink.com 1.10,2013-05-26 07:46:00,
2013-05-26 04:01:00,73.7,72.0,29.95,East,80,0.0,1.0,95,0.00,,,0.00,0,weatherlink.com 1.10,2013-05-26 08:01:00,
2013-05-26 04:16:00,74.0,72.0,29.96,East,80,0.0,2.0,94,0.00,,,0.00,0,weatherlink.com 1.10,2013-05-26 08:16:00,
2013-05-26 04:31:00,73.7,72.0,29.96,East,80,0.0,1.0,94,0.00,,,0.00,0,weatherlink.com 1.10,2013-05-26 08:31:00,
2013-05-26 04:46:00,73.7,72.0,29.96,East,80,1.0,2.0,95,0.00,,,0.00,0,weatherlink.com 1.10,2013-05-26 08:46:00,
2013-05-26 05:01:00,73.7,72.0,29.97,East,80,0.0,2.0,94,0.00,,,0.00,0,weatherlink.com 1.10,2013-05-26 09:01:00,
2013-05-26 05:16:00,73.3,72.0,29.97,East,80,0.0,3.0,95,0.00,,,0.00,0,weatherlink.com 1.10,2013-05-26 09:16:00,
2013-05-26 05:31:00,73.5,72.0,29.97,East,86,0.0,3.0,95,0.00,,,0.00,0,weatherlink.com 1.10,2013-05-26 09:31:00,
2013-05-26 05:46:00,73.8,72.0,29.97,East,86,0.0,2.0,95,0.00,,,0.00,0,weatherlink.com 1.10,2013-05-26 09:46:00,
2013-05-26 06:01:00,73.8,72.0,29.97,East,86,0.0,2.0,95,0.00,,,0.00,11,weatherlink.com 1.10,2013-05-26 10:01:00,
2013-05-26 06:16:00,74.0,72.0,29.98,East,86,0.0,2.0,94,0.00,,,0.00,37,weatherlink.com 1.10,2013-05-26 10:16:00,
2013-05-26 06:31:00,74.2,73.0,29.99,East,86,0.0,2.0,95,0.00,,,0.00,67,weatherlink.com 1.10,2013-05-26 10:31:00,
2013-05-26 06:46:00,74.9,73.0,29.99,East,86,0.0,1.0,94,0.00,,,0.00,120,weatherlink.com 1.10,2013-05-26 10:46:00,
2013-05-26 07:01:00,75.8,73.0,30.00,East,86,0.0,1.0,92,0.00,,,0.00,179,weatherlink.com 1.10,2013-05-26 11:01:00,
2013-05-26 07:16:00,76.7,74.0,30.00,East,86,0.0,5.0,90,0.00,,,0.00,225,weatherlink.com 1.10,2013-05-26 11:16:00,
2013-05-26 07:32:00,77.7,74.0,30.00,East,86,0.0,2.0,88,0.00,,,0.00,294,weatherlink.com 1.10,2013-05-26 11:32:00,
2013-05-26 07:47:00,77.9,74.0,30.00,East,86,2.0,2.0,87,0.00,,,0.00,330,weatherlink.com 1.10,2013-05-26 11:47:00,
2013-05-26 08:02:00,79.6,74.0,30.01,ENE,69,3.0,9.0,83,0.00,,,0.00,397,weatherlink.com 1.10,2013-05-26 12:02:00,
2013-05-26 08:17:00,79.3,74.0,30.01,East,84,5.0,9.0,84,0.00,,,0.00,251,weatherlink.com 1.10,2013-05-26 12:17:00,
2013-05-26 08:32:00,79.3,74.0,30.01,East,83,3.0,6.0,84,0.00,,,0.00,513,weatherlink.com 1.10,2013-05-26 12:32:00,
2013-05-26 08:47:00,80.8,74.0,30.01,East,94,0.0,8.0,80,0.00,,,0.00,571,weatherlink.com 1.10,2013-05-26 12:47:00,
2013-05-26 09:02:00,81.8,74.0,30.01,NE,54,5.0,8.0,78,0.00,,,0.00,628,weatherlink.com 1.10,2013-05-26 13:02:00,
2013-05-26 09:17:00,81.0,74.0,30.02,SE,126,1.0,13.0,80,0.00,,,0.00,765,weatherlink.com 1.10,2013-05-26 13:17:00,
2013-05-26 09:32:00,82.8,74.0,30.02,East,85,5.0,6.0,75,0.00,,,0.00,301,weatherlink.com 1.10,2013-05-26 13:32:00,
2013-05-26 09:47:00,83.0,75.0,30.02,ENE,67,2.0,8.0,77,0.00,,,0.00,810,weatherlink.com 1.10,2013-05-26 13:47:00,
2013-05-26 10:02:00,83.1,74.0,30.01,East,93,1.0,13.0,73,0.00,,,0.00,490,weatherlink.com 1.10,2013-05-26 14:02:00,
2013-05-26 10:17:00,83.6,74.0,30.01,SE,126,0.0,11.0,73,0.00,,,0.00,856,weatherlink.com 1.10,2013-05-26 14:17:00,
2013-05-26 10:32:00,84.1,75.0,30.01,SSW,198,1.0,11.0,73,0.00,,,0.00,758,weatherlink.com 1.10,2013-05-26 14:32:00,
2013-05-26 10:47:00,84.4,74.0,30.01,ESE,105,4.0,10.0,71,0.00,,,0.00,737,weatherlink.com 1.10,2013-05-26 14:47:00,
2013-05-26 11:02:00,84.4,74.0,30.01,SW,219,1.0,11.0,70,0.00,,,0.00,1000,weatherlink.com 1.10,2013-05-26 15:02:00,
2013-05-26 11:17:00,84.8,74.0,30.01,ESE,105,3.0,10.0,69,0.00,,,0.00,406,weatherlink.com 1.10,2013-05-26 15:17:00,
2013-05-26 11:32:00,85.8,75.0,30.01,SSW,209,0.0,10.0,70,0.00,,,0.00,1044,weatherlink.com 1.10,2013-05-26 15:32:00,
2013-05-26 11:47:00,85.5,75.0,30.01,ENE,74,0.0,8.0,70,0.00,,,0.00,302,weatherlink.com 1.10,2013-05-26 15:47:00,
2013-05-26 12:02:00,83.5,73.0,30.01,East,92,3.0,8.0,70,0.00,,,0.00,288,weatherlink.com 1.10,2013-05-26 16:02:00,
2013-05-26 12:17:00,84.3,75.0,30.00,ESE,120,0.0,9.0,74,0.00,,,0.00,1218,weatherlink.com 1.10,2013-05-26 16:17:00,
2013-05-26 12:32:00,84.2,74.0,30.00,ESE,121,5.0,12.0,71,0.00,,,0.00,369,weatherlink.com 1.10,2013-05-26 16:32:00,
2013-05-26 12:47:00,82.7,74.0,30.00,East,101,2.0,9.0,74,0.00,,,0.00,308,weatherlink.com 1.10,2013-05-26 16:47:00,
2013-05-26 13:02:00,82.7,73.0,30.00,East,98,1.0,9.0,73,0.00,,,0.00,550,weatherlink.com 1.10,2013-05-26 17:02:00,
2013-05-26 13:17:00,83.7,72.0,29.99,ENE,68,4.0,10.0,68,0.00,,,0.00,1155,weatherlink.com 1.10,2013-05-26 17:17:00,
2013-05-26 13:32:00,82.3,73.0,29.99,ENE,69,2.0,14.0,73,0.00,,,0.00,659,weatherlink.com 1.10,2013-05-26 17:32:00,
2013-05-26 13:47:00,80.6,73.0,29.99,East,101,0.0,9.0,77,0.00,,,0.00,329,weatherlink.com 1.10,2013-05-26 17:47:00,
2013-05-26 14:03:00,80.4,73.0,29.99,ESE,111,1.0,7.0,79,0.00,,,0.00,262,weatherlink.com 1.10,2013-05-26 18:03:00,
2013-05-26 14:17:00,80.3,74.0,29.99,SE,127,2.0,7.0,80,0.00,,,0.00,239,weatherlink.com 1.10,2013-05-26 18:17:00,
2013-05-26 14:33:00,80.1,73.0,29.99,SSE,147,3.0,9.0,79,0.00,,,0.00,197,weatherlink.com 1.10,2013-05-26 18:33:00,
2013-05-26 14:48:00,79.9,73.0,29.99,SE,136,1.0,9.0,79,0.00,,,0.00,181,weatherlink.com 1.10,2013-05-26 18:48:00,
2013-05-26 15:03:00,80.0,73.0,29.98,East,94,2.0,7.0,79,0.00,,,0.00,163,weatherlink.com 1.10,2013-05-26 19:03:00,
2013-05-26 15:17:00,80.0,73.0,29.98,ESE,115,1.0,5.0,80,0.00,,,0.00,146,weatherlink.com 1.10,2013-05-26 19:17:00,
2013-05-26 15:33:00,79.8,73.0,29.97,SE,132,0.0,11.0,79,0.00,,,0.00,134,weatherlink.com 1.10,2013-05-26 19:33:00,
2013-05-26 15:48:00,79.8,73.0,29.98,ESE,106,1.0,8.0,80,0.00,,,0.00,134,weatherlink.com 1.10,2013-05-26 19:48:00,
2013-05-26 16:04:00,79.7,73.0,29.97,SE,128,0.0,4.0,80,0.00,,,0.00,144,weatherlink.com 1.10,2013-05-26 20:04:00,
2013-05-26 16:18:00,79.7,73.0,29.97,ESE,109,0.0,5.0,81,0.00,,,0.00,153,weatherlink.com 1.10,2013-05-26 20:18:00,
2013-05-26 16:33:00,79.8,74.0,29.97,East,100,0.0,4.0,82,0.00,,,0.00,135,weatherlink.com 1.10,2013-05-26 20:33:00,
2013-05-26 16:49:00,79.9,74.0,29.97,ESE,108,0.0,1.0,81,0.00,,,0.00,155,weatherlink.com 1.10,2013-05-26 20:49:00,
2013-05-26 17:03:00,79.9,73.0,29.97,East,91,0.0,5.0,80,0.00,,,0.00,144,weatherlink.com 1.10,2013-05-26 21:03:00,
2013-05-26 17:18:00,80.0,73.0,29.96,East,83,5.0,6.0,79,0.00,,,0.00,127,weatherlink.com 1.10,2013-05-26 21:18:00,
2013-05-26 17:34:00,79.3,73.0,29.96,ENE,70,2.0,9.0,81,0.00,,,0.00,104,weatherlink.com 1.10,2013-05-26 21:34:00,
2013-05-26 17:48:00,79.2,73.0,29.96,East,86,0.0,5.0,82,0.00,,,0.00,76,weatherlink.com 1.10,2013-05-26 21:48:00,
2013-05-26 18:04:00,78.7,74.0,29.96,NE,49,6.0,6.0,84,0.00,,,0.00,51,weatherlink.com 1.10,2013-05-26 22:04:00,
2013-05-26 18:19:00,78.3,74.0,29.96,East,84,0.0,3.0,85,0.00,,,0.00,33,weatherlink.com 1.10,2013-05-26 22:19:00,
2013-05-26 18:33:00,78.0,74.0,29.96,ESE,115,2.0,6.0,86,0.00,,,0.00,19,weatherlink.com 1.10,2013-05-26 22:33:00,
2013-05-26 18:50:00,77.6,73.0,29.97,East,92,0.0,5.0,86,0.00,,,0.00,0,weatherlink.com 1.10,2013-05-26 22:50:00,
2013-05-26 19:04:00,77.4,73.0,29.97,East,89,1.0,5.0,86,0.00,,,0.00,0,weatherlink.com 1.10,2013-05-26 23:04:00,
2013-05-26 19:19:00,77.2,74.0,29.98,ENE,78,0.0,8.0,88,0.00,,,0.00,0,weatherlink.com 1.10,2013-05-26 23:19:00,
2013-05-26 19:34:00,77.1,73.0,29.98,ESE,104,0.0,6.0,88,0.00,,,0.00,0,weatherlink.com 1.10,2013-05-26 23:34:00,
2013-05-26 19:49:00,77.0,74.0,29.99,East,93,1.0,3.0,89,0.00,,,0.00,0,weatherlink.com 1.10,2013-05-26 23:49:00,
2013-05-26 20:03:00,76.7,73.0,29.99,East,93,0.0,5.0,89,0.00,,,0.00,0,weatherlink.com 1.10,2013-05-27 00:03:00,
2013-05-26 20:20:00,76.4,73.0,30.00,East,93,0.0,3.0,90,0.00,,,0.00,0,weatherlink.com 1.10,2013-05-27 00:20:00,
2013-05-26 20:35:00,76.4,73.0,30.00,ESE,111,1.0,7.0,90,0.00,,,0.00,0,weatherlink.com 1.10,2013-05-27 00:35:00,
2013-05-26 20:49:00,76.4,73.0,30.01,SE,137,0.0,3.0,90,0.00,,,0.00,0,weatherlink.com 1.10,2013-05-27 00:49:00,
2013-05-26 21:04:00,76.6,73.0,30.01,SE,137,0.0,1.0,89,0.00,,,0.00,0,weatherlink.com 1.10,2013-05-27 01:04:00,
2013-05-26 21:19:00,76.5,73.0,30.02,SE,137,1.0,2.0,89,0.00,,,0.00,0,weatherlink.com 1.10,2013-05-27 01:19:00,
2013-05-26 21:34:00,76.4,73.0,30.02,SE,136,0.0,4.0,90,0.00,,,0.00,0,weatherlink.com 1.10,2013-05-27 01:34:00,
2013-05-26 21:49:00,76.2,73.0,30.03,ESE,109,2.0,4.0,89,0.00,,,0.00,0,weatherlink.com 1.10,2013-05-27 01:49:00,
2013-05-26 22:04:00,76.1,73.0,30.03,ESE,109,2.0,3.0,89,0.00,,,0.00,0,weatherlink.com 1.10,2013-05-27 02:04:00,
2013-05-26 22:19:00,76.0,73.0,30.03,ESE,113,5.0,7.0,89,0.00,,,0.00,0,weatherlink.com 1.10,2013-05-27 02:19:00,
2013-05-26 22:34:00,76.1,73.0,30.03,SE,126,0.0,6.0,90,0.00,,,0.00,0,weatherlink.com 1.10,2013-05-27 02:34:00,
2013-05-26 22:49:00,76.0,73.0,30.03,ESE,113,3.0,8.0,90,0.00,,,0.00,0,weatherlink.com 1.10,2013-05-27 02:49:00,
2013-05-26 23:04:00,75.9,73.0,30.03,East,98,0.0,5.0,90,0.00,,,0.00,0,weatherlink.com 1.10,2013-05-27 03:04:00,
2013-05-26 23:19:00,75.9,73.0,30.03,East,80,0.0,3.0,89,0.00,,,0.00,0,weatherlink.com 1.10,2013-05-27 03:19:00,
2013-05-26 23:34:00,75.7,73.0,30.03,ESE,106,3.0,5.0,90,0.00,,,0.00,0,weatherlink.com 1.10,2013-05-27 03:34:00,
2013-05-26 23:49:00,75.8,72.0,30.02,East,97,2.0,7.0,89,0.00,,,0.00,0,weatherlink.com 1.10,2013-05-27 03:49:00,